This demonstration page uses our WeatherBlox Daily Observations layout. Learn more.

Hourly Observations for August 14, 2016

Temp ( °F °C ) Dew Point ( °F °C ) Humidity (%) Winds ( mph kmh ) Pressure ( in mb ) Visibility ( mi km ) Precip ( " mm )
12:15 am 00:15 Clear 66 19.1 59 14.8 76 76 N 3 6 30.06 1018 10 16.09344 0 0
12:35 am 00:35 Clear 67 19.3 58 14.7 75 75 Calm 30.06 1018 10 16.09344 0 0
12:55 am 00:55 Clear 67 19.2 59 14.9 76 76 NNW 7 11 30.06 1018 10 16.09344 0 0
1:15 am 01:15 Clear 67 19.5 58 14.3 72 72 NNW 10 17 30.06 1018 10 16.09344 0 0
1:35 am 01:35 Mostly Cloudy 67 19.3 54 12.3 64 64 NNW 9 15 30.06 1018 10 16.09344 0 0
1:55 am 01:55 Partly Cloudy 66 18.7 53 11.9 65 65 Calm 30.06 1018 10 16.09344 0 0
2:15 am 02:15 Clear 64 17.7 55 12.5 72 72 SE 7 11 30.03 1017 10 16.09344 0 0
2:35 am 02:35 Partly Cloudy with Nearby Thunderstorms 64 18 55 12.7 71 71 NNE 7 11 30.06 1018 10 16.09344 0 0
2:55 am 02:55 Partly Cloudy 64 17.8 55 13 74 74 Calm 30.06 1018 10 16.09344 0 0
3:15 am 03:15 Clear 63 17 56 13.5 80 80 Calm 30.09 1019 10 16.09344 0 0
3:35 am 03:35 Clear 61 16.1 57 13.7 86 86 Calm 30.09 1019 10 16.09344 0 0
3:55 am 03:55 Clear 61 16.2 57 13.7 85 85 Calm 30.09 1019 10 16.09344 0 0
4:15 am 04:15 Clear 63 17 57 14.1 83 83 Calm 30.09 1019 10 16.09344 0 0
4:35 am 04:35 Clear 62 16.8 57 14.1 84 84 Calm 30.09 1019 10 16.09344 0 0
4:55 am 04:55 Partly Cloudy 60 15.8 58 14.3 91 91 N 5 7 30.09 1019 10 16.09344 0 0
5:15 am 05:15 Mostly Cloudy 61 16.1 59 14.8 92 92 Calm 30.09 1019 10 16.09344 0 0
5:35 am 05:35 Mostly Cloudy 61 16.3 59 14.8 91 91 NW 6 9 30.09 1019 10 16.09344 0 0
5:55 am 05:55 Mostly Cloudy 61 16.2 59 14.8 91 91 Calm 30.09 1019 10 16.09344 0 0
6:15 am 06:15 Partly Cloudy 61 16 58 14.7 92 92 Calm 30.09 1019 10 16.09344 0 0
6:35 am 06:35 Clear 60 15.8 58 14.6 93 93 Calm 30.09 1019 10 16.09344 0 0
6:55 am 06:55 Sunny 59 15.2 57 14.1 93 93 Calm 30.09 1019 10 16.09344 0 0
7:15 am 07:15 Partly Cloudy 60 15.7 58 14.7 94 94 Calm 30.09 1019 10 16.09344 0 0
7:35 am 07:35 Partly Cloudy 61 16 58 14.7 92 92 Calm 30.09 1019 10 16.09344 0 0
7:55 am 07:55 Partly Cloudy 61 16.3 59 15.1 93 93 Calm 30.09 1019 10 16.09344 0 0
8:15 am 08:15 Sunny 64 17.8 60 15.8 88 88 Calm 30.06 1018 10 16.09344 0 0
8:35 am 08:35 Sunny 66 18.9 63 17 89 89 Calm 30.06 1018 10 16.09344 0 0
8:55 am 08:55 Sunny 68 20.1 62 16.6 80 80 Calm 30.06 1018 10 16.09344 0 0
9:15 am 09:15 Sunny 69 20.8 61 16.3 76 76 E 5 7 30.03 1017 10 16.09344 0 0
9:35 am 09:35 Sunny 70 21.2 62 16.6 75 75 E 5 7 30.03 1017 10 16.09344 0 0
9:55 am 09:55 Sunny 72 22 62 16.8 72 72 SE 5 7 30.03 1017 10 16.09344 0 0
10:15 am 10:15 Sunny 73 23 62 16.8 68 68 SE 3 6 30.03 1017 10 16.09344 0 0
10:35 am 10:35 Sunny 77 25 61 15.9 57 57 SSE 9 15 30 1016 10 16.09344 0 0
10:55 am 10:55 Sunny 77 24.8 60 15.6 57 57 SSE 10 17 30 1016 10 16.09344 0 0
11:15 am 11:15 Sunny 77 25 60 15.8 57 57 S 7 11 30 1016 10 16.09344 0 0
11:35 am 11:35 Sunny 78 25.3 61 16 56 56 SSE 7 11 30 1016 10 16.09344 0 0
11:55 am 11:55 Sunny 78 25.8 61 16 55 55 ESE 8 13 30 1016 10 16.09344 0 0
12:15 pm 12:15 Sunny 80 26.7 60 15.7 51 51 SSE 8 13 30 1016 10 16.09344 0 0
12:35 pm 12:35 Sunny 79 26.1 61 16 54 54 SE 9 15 30 1016 10 16.09344 0 0
12:55 pm 12:55 Sunny 80 26.5 61 16.2 53 53 E 8 13 30 1016 10 16.09344 0 0
1:15 pm 13:15 Sunny 81 27.2 62 16.4 52 52 ESE 8 13 30 1016 10 16.09344 0 0
1:35 pm 13:35 Sunny 82 28 60 15.5 47 47 ESE 10 17 30 1016 10 16.09344 0 0
1:55 pm 13:55 Sunny 82 27.5 60 15.3 47 47 ESE 10 17 30 1016 10 16.09344 0 0
2:15 pm 14:15 Sunny 82 27.8 61 16.1 49 49 ESE 9 15 30 1016 10 16.09344 0 0
2:35 pm 14:35 Sunny 84 28.7 60 15.3 44 44 SE 9 15 29.97 1015 10 16.09344 0 0
2:55 pm 14:55 Sunny 84 28.8 58 14.6 42 42 SE 10 17 29.94 1014 10 16.09344 0 0
3:15 pm 15:15 Sunny 84 29 58 14.7 42 42 SSE 12 19 29.94 1014 10 16.09344 0 0
3:35 pm 15:35 Sunny 84 29.1 58 14.5 41 41 ESE 12 19 29.94 1014 10 16.09344 0 0
3:55 pm 15:55 Sunny 83 28.2 60 15.3 45 45 SE 9 15 29.94 1014 10 16.09344 0 0
4:15 pm 16:15 Sunny 83 28.1 59 15.1 45 45 SSE 8 13 29.94 1014 10 16.09344 0 0
4:35 pm 16:35 Sunny 84 29.1 55 13 37 37 SE 7 11 29.91 1013 10 16.09344 0 0
4:55 pm 16:55 Sunny 85 29.4 56 13.3 37 37 SSE 9 15 29.91 1013 10 16.09344 0 0
5:15 pm 17:15 Sunny 84 29 58 14.3 41 41 SE 10 17 29.91 1013 10 16.09344 0 0
5:35 pm 17:35 Sunny 84 29.1 58 14.2 40 40 SE 10 17 29.91 1013 10 16.09344 0 0
5:55 pm 17:55 Sunny 85 29.3 58 14.6 41 41 SSE 13 20 29.91 1013 10 16.09344 0 0
6:15 pm 18:15 Sunny 84 29.1 58 14.7 41 41 SE 12 19 29.91 1013 10 16.09344 0 0
6:35 pm 18:35 Sunny 84 29 58 14.6 41 41 SSE 12 19 29.91 1013 10 16.09344 0 0
6:55 pm 18:55 Sunny 83 28.4 59 15.1 44 44 SE 9 15 29.91 1013 10 16.09344 0 0
7:15 pm 19:15 Sunny 82 28 60 15.3 46 46 SE 8 13 29.91 1013 10 16.09344 0 0
7:35 pm 19:35 Sunny 81 27.4 60 15.7 49 49 SE 7 11 29.91 1013 10 16.09344 0 0
7:55 pm 19:55 Sunny 80 26.4 62 16.4 54 54 SE 7 11 29.94 1014 10 16.09344 0 0
8:15 pm 20:15 Sunny 77 25.2 62 16.5 59 59 SE 9 15 29.94 1014 10 16.09344 0 0
8:35 pm 20:35 Sunny 75 24.1 62 16.5 63 63 SE 9 15 29.94 1014 10 16.09344 0 0
8:55 pm 20:55 Clear 74 23.4 61 16.2 64 64 SE 9 15 29.97 1015 10 16.09344 0 0
9:15 pm 21:15 Clear 72 22.3 62 16.4 69 69 SSE 7 11 29.97 1015 10 16.09344 0 0
9:35 pm 21:35 Clear 71 21.5 62 16.6 74 74 SE 7 11 29.97 1015 10 16.09344 0 0
9:55 pm 21:55 Clear 69 20.6 62 16.6 78 78 SE 7 11 29.97 1015 10 16.09344 0 0
10:15 pm 22:15 Clear 68 20.1 62 16.5 80 80 SSE 5 7 30.03 1017 10 16.09344 0 0
10:35 pm 22:35 Clear 68 20 61 16.3 79 79 SSE 7 11 30.03 1017 10 16.09344 0 0
10:55 pm 22:55 Clear 68 20 61 16 78 78 SE 7 11 30.03 1017 10 16.09344 0 0
11:15 pm 23:15 Clear 67 19.3 60 15.7 80 80 SSE 6 9 30.03 1017 10 16.09344 0 0
11:35 pm 23:35 Clear 67 19.3 60 15.4 78 78 SSE 7 11 30.03 1017 10 16.09344 0 0
11:55 pm 23:55 Clear 66 19 59 15.2 79 79 SSE 7 11 30.03 1017 10 16.09344 0 0

Powered by AerisWeather